User: anonymous   Login
Location: Boiro
(42.6475°N, 8.8834°W)
Time: 06:30:23
(UTC+02:00)
Language:

AO-73 - Orbit

View from above orbital plane
View from above orbital plane
View from above satellite
View from above satellite

Ground track
Ground track

The orbit data is extracted from the following two-line orbital elements,

1 39444U 13066AE  24106.89268117  .00013144  00000-0  13076-2 0  9997
2 39444  97.7143  67.2953 0048744 350.6388   9.3917 14.90882180561416
Epoch (UTC): 15 April 2024 21:25:27
Eccentricity: 0.0048744
inclination: 97.7143°
perigee height: 561 km
apogee height: 629 km
right ascension of ascending node: 67.2953°
argument of perigee: 350.6388°
revolutions per day: 14.90882180
mean anomaly at epoch: 9.3917°
orbit number at epoch: 56141

The dashed part of the orbit path shows where the satellite is in the earth's shadow,  

DLR